Time,TemperatureF,DewpointF,PressureIn,WindDirection,WindDirectionDegrees,WindSpeedMPH,WindSpeedGustMPH,Humidity,HourlyPrecipIn,Conditions,Clouds,dailyrainin,SoftwareType,DateUTC
2013-04-08 00:00:00,41.4,36.5,29.96,North,0,4.0,6.0,83,0.05,,,0.08,meteohub,2013-04-08 05:00:00,
2013-04-08 00:06:00,41.4,36.5,29.96,North,0,4.0,6.0,83,0.05,,,0.08,meteohub,2013-04-08 05:06:00,
2013-04-08 00:11:00,41.4,36.5,29.96,NW,315,4.0,7.0,83,0.04,,,0.09,meteohub,2013-04-08 05:11:00,
2013-04-08 00:17:00,41.4,36.5,29.97,North,0,3.0,7.0,83,0.05,,,0.12,meteohub,2013-04-08 05:17:00,
2013-04-08 00:22:00,41.4,36.5,29.97,North,0,2.0,7.0,83,0.05,,,0.12,meteohub,2013-04-08 05:22:00,
2013-04-08 00:27:00,41.2,36.5,29.96,NW,315,2.0,4.0,83,0.05,,,0.13,meteohub,2013-04-08 05:27:00,
2013-04-08 00:32:00,41.2,36.5,29.96,North,0,2.0,4.0,83,0.06,,,0.14,meteohub,2013-04-08 05:32:00,
2013-04-08 00:37:00,41.2,36.5,29.96,North,0,3.0,3.0,83,0.06,,,0.14,meteohub,2013-04-08 05:37:00,
2013-04-08 00:42:00,41.2,36.5,29.96,North,0,2.0,4.0,83,0.06,,,0.14,meteohub,2013-04-08 05:42:00,
2013-04-08 00:47:00,41.2,36.7,29.96,NW,315,1.0,4.0,84,0.06,,,0.14,meteohub,2013-04-08 05:47:00,
2013-04-08 00:53:00,41.2,36.7,29.97,SW,225,2.0,4.0,84,0.07,,,0.15,meteohub,2013-04-08 05:53:00,
2013-04-08 00:58:00,41.2,37.0,29.96,West,270,3.0,4.0,85,0.09,,,0.18,meteohub,2013-04-08 05:58:00,
2013-04-08 01:03:00,41.2,37.0,29.96,West,270,2.0,4.0,85,0.11,,,0.19,meteohub,2013-04-08 06:03:00,
2013-04-08 01:08:00,41.0,37.2,29.96,West,270,1.0,4.0,86,0.11,,,0.19,meteohub,2013-04-08 06:08:00,
2013-04-08 01:13:00,41.0,37.2,29.96,NW,315,2.0,4.0,86,0.11,,,0.21,meteohub,2013-04-08 06:13:00,
2013-04-08 01:18:00,41.0,37.2,29.95,NW,315,3.0,4.0,86,0.11,,,0.22,meteohub,2013-04-08 06:18:00,
2013-04-08 01:23:00,40.8,37.6,29.96,NE,45,1.0,4.0,88,0.09,,,0.22,meteohub,2013-04-08 06:23:00,
2013-04-08 01:29:00,40.8,37.6,29.96,NW,315,2.0,4.0,88,0.09,,,0.24,meteohub,2013-04-08 06:29:00,
2013-04-08 01:34:00,41.0,37.4,29.96,NW,315,1.0,3.0,87,0.12,,,0.26,meteohub,2013-04-08 06:34:00,
2013-04-08 01:39:00,41.0,37.4,29.95,West,270,3.0,3.0,87,0.14,,,0.28,meteohub,2013-04-08 06:39:00,
2013-04-08 01:44:00,41.0,37.8,29.95,West,270,3.0,3.0,88,0.15,,,0.30,meteohub,2013-04-08 06:44:00,
2013-04-08 01:50:00,41.2,37.9,29.95,NW,315,2.0,3.0,88,0.17,,,0.32,meteohub,2013-04-08 06:50:00,
2013-04-08 01:55:00,41.2,38.1,29.95,NW,315,3.0,4.0,89,0.17,,,0.34,meteohub,2013-04-08 06:55:00,
2013-04-08 02:00:00,41.2,38.1,29.95,West,270,2.0,4.0,89,0.19,,,0.38,meteohub,2013-04-08 07:00:00,
2013-04-08 02:05:00,41.2,38.5,29.94,SW,225,2.0,4.0,90,0.20,,,0.39,meteohub,2013-04-08 07:05:00,
2013-04-08 02:10:00,41.4,38.7,29.95,West,270,2.0,4.0,90,0.19,,,0.40,meteohub,2013-04-08 07:10:00,
2013-04-08 02:16:00,41.2,38.5,29.94,West,270,2.0,3.0,90,0.20,,,0.43,meteohub,2013-04-08 07:16:00,
2013-04-08 02:21:00,41.2,38.5,29.94,North,0,1.0,3.0,90,0.20,,,0.43,meteohub,2013-04-08 07:21:00,
2013-04-08 02:26:00,41.4,38.7,29.94,West,270,3.0,3.0,90,0.20,,,0.45,meteohub,2013-04-08 07:26:00,
2013-04-08 02:31:00,41.5,38.8,29.94,NW,315,2.0,3.0,90,0.21,,,0.48,meteohub,2013-04-08 07:31:00,
2013-04-08 02:36:00,41.5,38.8,29.94,West,270,1.0,3.0,90,0.20,,,0.50,meteohub,2013-04-08 07:36:00,
2013-04-08 02:42:00,41.5,39.2,29.94,NW,315,2.0,3.0,91,0.20,,,0.51,meteohub,2013-04-08 07:42:00,
2013-04-08 02:47:00,41.5,39.2,29.94,NW,315,2.0,3.0,91,0.20,,,0.52,meteohub,2013-04-08 07:47:00,
2013-04-08 02:52:00,41.5,39.2,29.94,West,270,0.0,3.0,91,0.20,,,0.53,meteohub,2013-04-08 07:52:00,
2013-04-08 02:57:00,41.5,39.2,29.94,NW,315,2.0,2.0,91,0.19,,,0.54,meteohub,2013-04-08 07:57:00,
2013-04-08 03:03:00,41.5,39.2,29.93,NW,315,2.0,2.0,91,0.19,,,0.57,meteohub,2013-04-08 08:03:00,
2013-04-08 03:09:00,41.5,39.2,29.93,NW,315,2.0,2.0,91,0.17,,,0.57,meteohub,2013-04-08 08:09:00,
2013-04-08 03:14:00,41.7,39.2,29.92,North,0,3.0,3.0,91,0.18,,,0.59,meteohub,2013-04-08 08:14:00,
2013-04-08 03:19:00,41.7,39.2,29.92,NW,315,4.0,4.0,91,0.17,,,0.59,meteohub,2013-04-08 08:19:00,
2013-04-08 03:25:00,41.9,39.4,29.92,NW,315,4.0,4.0,91,0.17,,,0.63,meteohub,2013-04-08 08:25:00,
2013-04-08 03:30:00,41.7,39.2,29.92,North,0,3.0,8.0,91,0.15,,,0.64,meteohub,2013-04-08 08:30:00,
2013-04-08 03:35:00,41.7,39.2,29.92,North,0,3.0,8.0,91,0.14,,,0.64,meteohub,2013-04-08 08:35:00,
2013-04-08 03:41:00,41.7,39.2,29.92,North,0,3.0,5.0,91,0.12,,,0.64,meteohub,2013-04-08 08:41:00,
2013-04-08 03:46:00,41.7,39.2,29.92,NW,315,2.0,6.0,91,0.12,,,0.64,meteohub,2013-04-08 08:46:00,
2013-04-08 03:52:00,41.5,39.2,29.92,NW,315,4.0,6.0,91,0.09,,,0.64,meteohub,2013-04-08 08:52:00,
2013-04-08 03:57:00,41.5,39.2,29.91,NW,315,4.0,6.0,91,0.08,,,0.64,meteohub,2013-04-08 08:57:00,
2013-04-08 04:02:00,41.5,39.2,29.92,NW,315,3.0,4.0,91,0.07,,,0.64,meteohub,2013-04-08 09:02:00,
2013-04-08 04:07:00,41.5,39.2,29.91,NW,315,2.0,4.0,91,0.07,,,0.64,meteohub,2013-04-08 09:07:00,
2013-04-08 04:12:00,41.5,39.2,29.92,NW,315,5.0,5.0,91,0.06,,,0.65,meteohub,2013-04-08 09:12:00,
2013-04-08 04:17:00,41.5,39.2,29.92,North,0,2.0,5.0,91,0.06,,,0.66,meteohub,2013-04-08 09:17:00,
2013-04-08 04:22:00,41.5,39.2,29.91,NW,315,3.0,5.0,91,0.06,,,0.67,meteohub,2013-04-08 09:22:00,
2013-04-08 04:27:00,41.5,39.2,29.91,WNW,293,4.0,5.0,91,0.05,,,0.67,meteohub,2013-04-08 09:27:00,
2013-04-08 04:34:00,41.4,39.0,29.91,NE,45,5.0,5.0,91,0.05,,,0.69,meteohub,2013-04-08 09:34:00,
2013-04-08 04:39:00,41.4,39.0,29.91,North,0,4.0,6.0,91,0.06,,,0.70,meteohub,2013-04-08 09:39:00,
2013-04-08 04:44:00,41.4,39.0,29.90,North,0,2.0,6.0,91,0.06,,,0.70,meteohub,2013-04-08 09:44:00,
2013-04-08 04:49:00,41.4,39.0,29.90,NW,315,3.0,5.0,91,0.07,,,0.71,meteohub,2013-04-08 09:49:00,
2013-04-08 04:54:00,41.4,39.0,29.90,NW,315,2.0,4.0,91,0.07,,,0.71,meteohub,2013-04-08 09:54:00,
2013-04-08 05:00:00,41.2,38.8,29.89,NW,315,3.0,5.0,91,0.07,,,0.71,meteohub,2013-04-08 10:00:00,
2013-04-08 05:05:00,41.2,38.8,29.90,NW,315,3.0,5.0,91,0.06,,,0.71,meteohub,2013-04-08 10:05:00,
2013-04-08 05:10:00,41.2,38.8,29.89,NW,315,3.0,3.0,91,0.06,,,0.71,meteohub,2013-04-08 10:10:00,
2013-04-08 05:16:00,41.2,38.8,29.89,NW,315,2.0,4.0,91,0.05,,,0.71,meteohub,2013-04-08 10:16:00,
2013-04-08 05:21:00,41.2,38.8,29.89,WNW,293,4.0,5.0,91,0.04,,,0.71,meteohub,2013-04-08 10:21:00,
2013-04-08 05:26:00,41.2,38.8,29.89,West,270,2.0,5.0,91,0.02,,,0.71,meteohub,2013-04-08 10:26:00,
2013-04-08 05:31:00,41.2,39.0,29.89,SW,225,2.0,5.0,92,0.02,,,0.71,meteohub,2013-04-08 10:31:00,
2013-04-08 05:36:00,41.2,39.0,29.89,West,270,1.0,4.0,92,0.01,,,0.71,meteohub,2013-04-08 10:36:00,
2013-04-08 05:42:00,41.2,39.0,29.89,NW,315,2.0,2.0,92,0.00,,,0.71,meteohub,2013-04-08 10:42:00,
2013-04-08 05:47:00,41.2,39.0,29.89,NW,315,2.0,2.0,92,0.00,,,0.71,meteohub,2013-04-08 10:47:00,
2013-04-08 05:52:00,41.0,38.8,29.89,NW,315,1.0,2.0,92,0.00,,,0.71,meteohub,2013-04-08 10:52:00,
2013-04-08 05:57:00,41.0,38.8,29.88,NW,315,2.0,3.0,92,0.00,,,0.71,meteohub,2013-04-08 10:57:00,
2013-04-08 06:02:00,41.0,38.8,29.89,NW,315,4.0,4.0,92,0.00,,,0.71,meteohub,2013-04-08 11:02:00,
2013-04-08 06:07:00,41.2,39.0,29.89,NW,315,2.0,4.0,92,0.00,,,0.71,meteohub,2013-04-08 11:07:00,
2013-04-08 06:12:00,41.2,39.0,29.89,NW,315,2.0,4.0,92,0.00,,,0.71,meteohub,2013-04-08 11:12:00,
2013-04-08 06:17:00,41.2,39.0,29.88,NW,315,4.0,4.0,92,0.00,,,0.71,meteohub,2013-04-08 11:17:00,
2013-04-08 06:22:00,41.2,39.0,29.89,NW,315,2.0,4.0,92,0.00,,,0.71,meteohub,2013-04-08 11:22:00,
2013-04-08 06:27:00,41.0,38.8,29.88,SW,225,2.0,4.0,92,0.00,,,0.71,meteohub,2013-04-08 11:27:00,
2013-04-08 06:32:00,41.0,38.8,29.90,NW,315,1.0,4.0,92,0.00,,,0.71,meteohub,2013-04-08 11:32:00,
2013-04-08 06:38:00,41.0,38.8,29.89,North,0,2.0,3.0,92,0.00,,,0.71,meteohub,2013-04-08 11:38:00,
2013-04-08 06:43:00,41.0,38.8,29.89,West,270,3.0,4.0,92,0.00,,,0.71,meteohub,2013-04-08 11:43:00,
2013-04-08 06:48:00,41.0,38.8,29.90,NW,315,1.0,4.0,92,0.00,,,0.71,meteohub,2013-04-08 11:48:00,
2013-04-08 06:54:00,41.0,38.8,29.90,NW,315,1.0,4.0,92,0.00,,,0.71,meteohub,2013-04-08 11:54:00,
2013-04-08 06:59:00,41.0,38.8,29.91,North,0,1.0,4.0,92,0.00,,,0.71,meteohub,2013-04-08 11:59:00,
2013-04-08 07:05:00,41.0,38.8,29.91,North,0,1.0,2.0,92,0.00,,,0.71,meteohub,2013-04-08 12:05:00,
2013-04-08 07:10:00,41.0,38.8,29.91,NW,315,2.0,2.0,92,0.00,,,0.71,meteohub,2013-04-08 12:10:00,
2013-04-08 07:15:00,41.0,38.8,29.91,North,0,2.0,2.0,92,0.00,,,0.71,meteohub,2013-04-08 12:15:00,
2013-04-08 07:20:00,41.0,38.8,29.91,North,0,3.0,3.0,92,0.00,,,0.71,meteohub,2013-04-08 12:20:00,
2013-04-08 07:25:00,41.0,38.8,29.91,North,0,2.0,3.0,92,0.00,,,0.71,meteohub,2013-04-08 12:25:00,
2013-04-08 07:31:00,41.0,38.8,29.91,NW,315,2.0,3.0,92,0.00,,,0.71,meteohub,2013-04-08 12:31:00,
2013-04-08 07:36:00,41.0,38.8,29.92,NW,315,4.0,4.0,92,0.00,,,0.71,meteohub,2013-04-08 12:36:00,
2013-04-08 07:41:00,41.0,38.8,29.92,North,0,2.0,4.0,92,0.00,,,0.71,meteohub,2013-04-08 12:41:00,
2013-04-08 07:47:00,41.0,38.8,29.92,North,0,5.0,5.0,92,0.00,,,0.71,meteohub,2013-04-08 12:47:00,
2013-04-08 07:52:00,40.8,39.0,29.93,West,270,3.0,6.0,93,0.00,,,0.71,meteohub,2013-04-08 12:52:00,
2013-04-08 07:57:00,40.6,38.8,29.93,NW,315,4.0,6.0,93,0.00,,,0.71,meteohub,2013-04-08 12:57:00,
2013-04-08 08:02:00,40.6,38.8,29.94,North,0,4.0,7.0,93,0.00,,,0.71,meteohub,2013-04-08 13:02:00,
2013-04-08 08:08:00,40.5,38.7,29.93,North,0,2.0,7.0,93,0.00,,,0.71,meteohub,2013-04-08 13:08:00,
2013-04-08 08:13:00,40.5,38.7,29.94,North,0,4.0,7.0,93,0.00,,,0.71,meteohub,2013-04-08 13:13:00,
2013-04-08 08:18:00,40.6,38.8,29.94,North,0,3.0,6.0,93,0.00,,,0.71,meteohub,2013-04-08 13:18:00,
2013-04-08 08:23:00,40.6,38.8,29.94,North,0,2.0,4.0,93,0.00,,,0.71,meteohub,2013-04-08 13:23:00,
2013-04-08 08:28:00,40.6,38.5,29.94,NW,315,2.0,5.0,92,0.00,,,0.71,meteohub,2013-04-08 13:28:00,
2013-04-08 08:34:00,40.6,38.5,29.95,NW,315,2.0,5.0,92,0.00,,,0.71,meteohub,2013-04-08 13:34:00,
2013-04-08 08:39:00,40.5,38.3,29.94,NW,315,1.0,5.0,92,0.00,,,0.71,meteohub,2013-04-08 13:39:00,
2013-04-08 08:44:00,40.6,38.5,29.94,North,0,3.0,4.0,92,0.00,,,0.71,meteohub,2013-04-08 13:44:00,
2013-04-08 08:50:00,40.8,38.7,29.94,North,0,2.0,4.0,92,0.00,,,0.71,meteohub,2013-04-08 13:50:00,
2013-04-08 08:55:00,41.0,38.8,29.94,North,0,2.0,3.0,92,0.00,,,0.71,meteohub,2013-04-08 13:55:00,
2013-04-08 09:00:00,41.0,38.8,29.95,North,0,2.0,3.0,92,0.00,,,0.71,meteohub,2013-04-08 14:00:00,
2013-04-08 09:05:00,41.0,38.8,29.95,North,0,2.0,3.0,92,0.00,,,0.71,meteohub,2013-04-08 14:05:00,
2013-04-08 09:11:00,41.2,38.8,29.95,NE,45,3.0,3.0,91,0.00,,,0.71,meteohub,2013-04-08 14:11:00,
2013-04-08 09:16:00,41.2,38.8,29.94,North,0,3.0,4.0,91,0.00,,,0.71,meteohub,2013-04-08 14:16:00,
2013-04-08 09:21:00,41.4,39.0,29.94,NW,315,2.0,4.0,91,0.00,,,0.71,meteohub,2013-04-08 14:21:00,
2013-04-08 09:27:00,41.4,39.0,29.94,North,0,3.0,4.0,91,0.00,,,0.71,meteohub,2013-04-08 14:27:00,
2013-04-08 09:32:00,41.5,39.2,29.95,North,0,2.0,4.0,91,0.00,,,0.71,meteohub,2013-04-08 14:32:00,
2013-04-08 09:37:00,41.5,39.2,29.95,NW,315,4.0,4.0,91,0.00,,,0.71,meteohub,2013-04-08 14:37:00,
2013-04-08 09:42:00,41.5,39.2,29.96,NW,315,3.0,4.0,91,0.00,,,0.71,meteohub,2013-04-08 14:42:00,
2013-04-08 09:47:00,41.5,39.2,29.96,NW,315,3.0,4.0,91,0.00,,,0.71,meteohub,2013-04-08 14:47:00,
2013-04-08 09:52:00,41.5,39.2,29.96,SW,225,2.0,4.0,91,0.00,,,0.71,meteohub,2013-04-08 14:52:00,
2013-04-08 09:57:00,41.7,39.2,29.96,NW,315,4.0,4.0,91,0.00,,,0.71,meteohub,2013-04-08 14:57:00,
2013-04-08 10:02:00,41.9,39.4,29.96,NW,315,4.0,4.0,91,0.00,,,0.71,meteohub,2013-04-08 15:02:00,
2013-04-08 10:08:00,41.9,39.2,29.96,NE,45,2.0,4.0,90,0.00,,,0.71,meteohub,2013-04-08 15:08:00,
2013-04-08 10:13:00,42.1,39.4,29.96,NW,315,2.0,4.0,90,0.00,,,0.71,meteohub,2013-04-08 15:13:00,
2013-04-08 10:18:00,42.1,39.4,29.96,NW,315,3.0,4.0,90,0.00,,,0.71,meteohub,2013-04-08 15:18:00,
2013-04-08 10:23:00,42.3,39.6,29.96,NW,315,3.0,3.0,90,0.00,,,0.71,meteohub,2013-04-08 15:23:00,
2013-04-08 10:28:00,42.3,39.6,29.96,SW,225,3.0,4.0,90,0.00,,,0.71,meteohub,2013-04-08 15:28:00,
2013-04-08 10:34:00,42.3,39.2,29.97,West,270,3.0,4.0,89,0.00,,,0.71,meteohub,2013-04-08 15:34:00,
2013-04-08 10:39:00,42.3,39.2,29.97,West,270,5.0,5.0,89,0.00,,,0.71,meteohub,2013-04-08 15:39:00,
2013-04-08 10:44:00,42.1,38.8,29.97,SW,225,7.0,7.0,88,0.00,,,0.71,meteohub,2013-04-08 15:44:00,
2013-04-08 10:49:00,41.7,38.5,29.97,SSE,158,6.0,9.0,88,0.00,,,0.71,meteohub,2013-04-08 15:49:00,
2013-04-08 10:55:00,41.7,38.5,29.97,East,90,3.0,10.0,88,0.00,,,0.71,meteohub,2013-04-08 15:55:00,
2013-04-08 11:00:00,41.7,38.5,29.97,NW,315,2.0,10.0,88,0.00,,,0.71,meteohub,2013-04-08 16:00:00,
2013-04-08 11:05:00,41.7,38.5,29.97,NW,315,2.0,8.0,88,0.00,,,0.71,meteohub,2013-04-08 16:05:00,
2013-04-08 11:10:00,41.7,38.5,29.97,NW,315,2.0,4.0,88,0.00,,,0.71,meteohub,2013-04-08 16:10:00,
2013-04-08 11:15:00,41.7,38.5,29.98,West,270,3.0,3.0,88,0.00,,,0.71,meteohub,2013-04-08 16:15:00,
2013-04-08 11:21:00,41.9,38.7,29.98,West,270,4.0,4.0,88,0.00,,,0.71,meteohub,2013-04-08 16:21:00,
2013-04-08 11:26:00,41.9,38.7,29.98,West,270,5.0,5.0,88,0.00,,,0.71,meteohub,2013-04-08 16:26:00,
2013-04-08 11:31:00,42.1,38.8,29.98,SW,225,3.0,6.0,88,0.00,,,0.71,meteohub,2013-04-08 16:31:00,
2013-04-08 11:36:00,42.3,39.0,29.98,NW,315,4.0,6.0,88,0.00,,,0.71,meteohub,2013-04-08 16:36:00,
2013-04-08 11:41:00,42.4,39.2,29.98,West,270,4.0,6.0,88,0.00,,,0.71,meteohub,2013-04-08 16:41:00,
2013-04-08 11:46:00,42.6,39.4,29.98,SW,225,3.0,4.0,88,0.00,,,0.71,meteohub,2013-04-08 16:46:00,
2013-04-08 11:51:00,42.8,39.2,29.98,West,270,6.0,6.0,87,0.00,,,0.71,meteohub,2013-04-08 16:51:00,
2013-04-08 11:57:00,43.0,39.0,29.99,West,270,4.0,6.0,86,0.00,,,0.71,meteohub,2013-04-08 16:57:00,
2013-04-08 12:02:00,43.0,38.8,29.99,SW,225,4.0,6.0,85,0.00,,,0.71,meteohub,2013-04-08 17:02:00,
2013-04-08 12:07:00,42.8,38.7,29.99,SW,225,7.0,7.0,85,0.00,,,0.71,meteohub,2013-04-08 17:07:00,
2013-04-08 12:12:00,42.8,38.3,29.99,NW,315,3.0,7.0,84,0.00,,,0.71,meteohub,2013-04-08 17:12:00,
2013-04-08 12:18:00,43.0,38.5,29.99,West,270,4.0,7.0,84,0.00,,,0.71,meteohub,2013-04-08 17:18:00,
2013-04-08 12:23:00,42.8,38.3,29.99,West,270,3.0,7.0,84,0.00,,,0.71,meteohub,2013-04-08 17:23:00,
2013-04-08 12:29:00,43.0,38.5,29.99,NW,315,2.0,5.0,84,0.00,,,0.71,meteohub,2013-04-08 17:29:00,
2013-04-08 12:34:00,43.2,38.7,30.00,West,270,3.0,4.0,84,0.00,,,0.71,meteohub,2013-04-08 17:34:00,
2013-04-08 12:39:00,43.3,38.8,30.00,West,270,2.0,5.0,84,0.00,,,0.71,meteohub,2013-04-08 17:39:00,
2013-04-08 12:44:00,43.5,39.0,29.99,West,270,2.0,5.0,84,0.00,,,0.71,meteohub,2013-04-08 17:44:00,
2013-04-08 12:50:00,43.5,38.7,30.00,West,270,4.0,5.0,83,0.00,,,0.71,meteohub,2013-04-08 17:50:00,
2013-04-08 12:55:00,43.9,39.0,30.00,NW,315,2.0,5.0,83,0.00,,,0.71,meteohub,2013-04-08 17:55:00,
2013-04-08 13:00:00,44.1,39.2,30.00,SW,225,3.0,4.0,83,0.00,,,0.71,meteohub,2013-04-08 18:00:00,
2013-04-08 13:05:00,44.1,39.2,30.01,SW,225,3.0,4.0,83,0.00,,,0.71,meteohub,2013-04-08 18:05:00,
2013-04-08 13:10:00,43.9,38.7,30.01,SW,225,4.0,5.0,82,0.00,,,0.71,meteohub,2013-04-08 18:10:00,
2013-04-08 13:16:00,43.7,38.5,30.01,SW,225,4.0,5.0,82,0.00,,,0.71,meteohub,2013-04-08 18:16:00,
2013-04-08 13:22:00,43.7,38.5,30.01,North,0,3.0,5.0,82,0.00,,,0.71,meteohub,2013-04-08 18:22:00,
2013-04-08 13:27:00,43.9,38.7,30.01,North,0,5.0,5.0,82,0.00,,,0.71,meteohub,2013-04-08 18:27:00,
2013-04-08 13:32:00,43.9,38.7,30.02,South,180,3.0,5.0,82,0.00,,,0.71,meteohub,2013-04-08 18:32:00,
2013-04-08 13:37:00,44.1,38.8,30.02,West,270,5.0,5.0,82,0.00,,,0.71,meteohub,2013-04-08 18:37:00,
2013-04-08 13:42:00,43.9,38.7,30.02,SW,225,4.0,5.0,82,0.00,,,0.71,meteohub,2013-04-08 18:42:00,
2013-04-08 13:47:00,43.9,38.7,30.02,North,0,1.0,6.0,82,0.00,,,0.71,meteohub,2013-04-08 18:47:00,
2013-04-08 13:52:00,44.4,39.2,30.02,SW,225,4.0,6.0,82,0.00,,,0.71,meteohub,2013-04-08 18:52:00,
2013-04-08 13:57:00,44.1,38.7,30.02,West,270,4.0,6.0,81,0.00,,,0.71,meteohub,2013-04-08 18:57:00,
2013-04-08 14:02:00,44.4,39.2,30.02,NW,315,2.0,7.0,82,0.00,,,0.71,meteohub,2013-04-08 19:02:00,
2013-04-08 14:07:00,44.4,39.0,30.02,SW,225,4.0,7.0,81,0.00,,,0.71,meteohub,2013-04-08 19:07:00,
2013-04-08 14:13:00,44.6,38.8,30.02,SW,225,4.0,7.0,80,0.00,,,0.71,meteohub,2013-04-08 19:13:00,
2013-04-08 14:18:00,44.6,38.8,30.02,North,0,2.0,5.0,80,0.00,,,0.71,meteohub,2013-04-08 19:18:00,
2013-04-08 14:23:00,44.6,38.8,30.02,South,180,2.0,5.0,80,0.00,,,0.71,meteohub,2013-04-08 19:23:00,
2013-04-08 14:28:00,44.6,38.8,30.03,NW,315,2.0,5.0,80,0.00,,,0.71,meteohub,2013-04-08 19:28:00,
2013-04-08 14:34:00,44.4,39.0,30.03,West,270,4.0,4.0,81,0.00,,,0.71,meteohub,2013-04-08 19:34:00,
2013-04-08 14:40:00,44.1,38.3,30.03,West,270,6.0,6.0,80,0.00,,,0.71,meteohub,2013-04-08 19:40:00,
2013-04-08 14:45:00,44.1,38.7,30.02,North,0,5.0,6.0,81,0.01,,,0.72,meteohub,2013-04-08 19:45:00,
2013-04-08 14:50:00,44.1,38.7,30.02,North,0,3.0,6.0,81,0.01,,,0.72,meteohub,2013-04-08 19:50:00,
2013-04-08 14:55:00,44.2,38.8,30.02,West,270,4.0,6.0,81,0.01,,,0.72,meteohub,2013-04-08 19:55:00,
2013-04-08 15:01:00,44.2,38.8,30.01,NW,315,5.0,5.0,81,0.01,,,0.72,meteohub,2013-04-08 20:01:00,
2013-04-08 15:06:00,44.2,38.8,30.02,NW,315,5.0,5.0,81,0.01,,,0.72,meteohub,2013-04-08 20:06:00,
2013-04-08 15:11:00,45.0,38.8,30.02,SW,225,5.0,7.0,79,0.01,,,0.72,meteohub,2013-04-08 20:11:00,
2013-04-08 15:17:00,45.0,38.8,30.02,East,90,4.0,7.0,79,0.01,,,0.72,meteohub,2013-04-08 20:17:00,
2013-04-08 15:22:00,45.0,38.8,30.02,NW,315,4.0,7.0,79,0.01,,,0.72,meteohub,2013-04-08 20:22:00,
2013-04-08 15:28:00,44.8,38.7,30.02,West,270,6.0,7.0,79,0.01,,,0.72,meteohub,2013-04-08 20:28:00,
2013-04-08 15:33:00,44.6,38.5,30.01,WNW,293,6.0,8.0,79,0.01,,,0.72,meteohub,2013-04-08 20:33:00,
2013-04-08 15:38:00,44.6,38.5,30.01,SW,225,7.0,8.0,79,0.01,,,0.72,meteohub,2013-04-08 20:38:00,
2013-04-08 15:43:00,44.8,38.7,30.01,West,270,4.0,8.0,79,0.01,,,0.72,meteohub,2013-04-08 20:43:00,
2013-04-08 15:49:00,45.0,38.8,30.01,West,270,4.0,7.0,79,0.00,,,0.72,meteohub,2013-04-08 20:49:00,
2013-04-08 15:54:00,45.3,39.2,30.01,West,270,5.0,7.0,79,0.00,,,0.72,meteohub,2013-04-08 20:54:00,
2013-04-08 15:59:00,45.3,38.8,30.01,West,270,4.0,8.0,78,0.00,,,0.72,meteohub,2013-04-08 20:59:00,
2013-04-08 16:05:00,45.1,38.7,30.02,West,270,4.0,8.0,78,0.00,,,0.72,meteohub,2013-04-08 21:05:00,
2013-04-08 16:10:00,45.1,38.7,30.02,West,270,6.0,8.0,78,0.00,,,0.72,meteohub,2013-04-08 21:10:00,
2013-04-08 16:15:00,45.1,38.7,30.03,West,270,3.0,7.0,78,0.00,,,0.72,meteohub,2013-04-08 21:15:00,
2013-04-08 16:20:00,45.3,38.8,30.04,WNW,293,3.0,6.0,78,0.00,,,0.72,meteohub,2013-04-08 21:20:00,
2013-04-08 16:25:00,45.1,38.7,30.04,West,270,5.0,6.0,78,0.00,,,0.72,meteohub,2013-04-08 21:25:00,
2013-04-08 16:31:00,45.0,38.5,30.04,West,270,4.0,6.0,78,0.00,,,0.72,meteohub,2013-04-08 21:31:00,
2013-04-08 16:36:00,45.0,38.5,30.05,NW,315,8.0,8.0,78,0.00,,,0.72,meteohub,2013-04-08 21:36:00,
2013-04-08 16:41:00,44.8,38.3,30.05,NW,315,4.0,8.0,78,0.00,,,0.72,meteohub,2013-04-08 21:41:00,
2013-04-08 16:46:00,44.8,38.3,30.05,West,270,4.0,8.0,78,0.00,,,0.72,meteohub,2013-04-08 21:46:00,
2013-04-08 16:51:00,44.8,38.3,30.06,West,270,4.0,8.0,78,0.00,,,0.72,meteohub,2013-04-08 21:51:00,
2013-04-08 16:56:00,44.8,38.3,30.07,West,270,6.0,7.0,78,0.00,,,0.72,meteohub,2013-04-08 21:56:00,
2013-04-08 17:02:00,44.8,38.3,30.07,West,270,8.0,8.0,78,0.00,,,0.72,meteohub,2013-04-08 22:02:00,
2013-04-08 17:07:00,44.8,38.3,30.07,West,270,8.0,8.0,78,0.00,,,0.72,meteohub,2013-04-08 22:07:00,
2013-04-08 17:12:00,44.8,38.7,30.07,NW,315,4.0,8.0,79,0.00,,,0.72,meteohub,2013-04-08 22:12:00,
2013-04-08 17:17:00,44.6,38.5,30.08,West,270,2.0,8.0,79,0.00,,,0.72,meteohub,2013-04-08 22:17:00,
2013-04-08 17:22:00,44.6,38.5,30.09,West,270,2.0,8.0,79,0.00,,,0.72,meteohub,2013-04-08 22:22:00,
2013-04-08 17:28:00,44.6,38.5,30.09,West,270,3.0,6.0,79,0.00,,,0.72,meteohub,2013-04-08 22:28:00,
2013-04-08 17:34:00,44.8,38.7,30.10,NW,315,2.0,6.0,79,0.00,,,0.72,meteohub,2013-04-08 22:34:00,
2013-04-08 17:39:00,44.8,38.7,30.10,SW,225,5.0,6.0,79,0.00,,,0.72,meteohub,2013-04-08 22:39:00,
2013-04-08 17:44:00,44.6,38.5,30.10,West,270,3.0,6.0,79,0.00,,,0.72,meteohub,2013-04-08 22:44:00,
2013-04-08 17:49:00,44.6,38.5,30.09,SW,225,5.0,6.0,79,0.00,,,0.72,meteohub,2013-04-08 22:49:00,
2013-04-08 17:54:00,44.4,38.7,30.10,NW,315,4.0,6.0,80,0.00,,,0.72,meteohub,2013-04-08 22:54:00,
2013-04-08 18:00:00,44.2,38.5,30.10,West,270,6.0,9.0,80,0.00,,,0.72,meteohub,2013-04-08 23:00:00,
2013-04-08 18:05:00,44.2,38.5,30.09,WNW,293,7.0,9.0,80,0.00,,,0.72,meteohub,2013-04-08 23:05:00,
2013-04-08 18:10:00,44.1,38.3,30.10,West,270,10.0,10.0,80,0.00,,,0.72,meteohub,2013-04-08 23:10:00,
2013-04-08 18:15:00,44.1,38.3,30.09,WNW,293,4.0,10.0,80,0.00,,,0.72,meteohub,2013-04-08 23:15:00,
2013-04-08 18:20:00,43.9,38.1,30.10,West,270,8.0,10.0,80,0.00,,,0.72,meteohub,2013-04-08 23:20:00,
2013-04-08 18:26:00,43.9,38.1,30.11,West,270,6.0,11.0,80,0.00,,,0.72,meteohub,2013-04-08 23:26:00,
2013-04-08 18:31:00,43.7,38.3,30.12,SW,225,7.0,11.0,81,0.00,,,0.72,meteohub,2013-04-08 23:31:00,
2013-04-08 18:36:00,43.5,38.1,30.12,SW,225,6.0,11.0,81,0.00,,,0.72,meteohub,2013-04-08 23:36:00,
2013-04-08 18:42:00,43.3,38.3,30.13,NW,315,6.0,9.0,82,0.00,,,0.72,meteohub,2013-04-08 23:42:00,
2013-04-08 18:47:00,43.0,37.9,30.13,SW,225,4.0,9.0,82,0.00,,,0.72,meteohub,2013-04-08 23:47:00,
2013-04-08 18:52:00,42.8,37.8,30.14,West,270,6.0,11.0,82,0.00,,,0.72,meteohub,2013-04-08 23:52:00,
2013-04-08 18:57:00,42.8,37.9,30.14,SW,225,8.0,11.0,83,0.00,,,0.72,meteohub,2013-04-08 23:57:00,
2013-04-08 19:02:00,42.8,37.9,30.14,West,270,6.0,10.0,83,0.00,,,0.72,meteohub,2013-04-09 00:02:00,
2013-04-08 19:08:00,42.6,38.1,30.15,SW,225,6.0,10.0,84,0.00,,,0.00,meteohub,2013-04-09 00:08:00,
2013-04-08 19:14:00,42.6,38.1,30.15,West,270,7.0,10.0,84,0.00,,,0.00,meteohub,2013-04-09 00:14:00,
2013-04-08 19:19:00,42.6,38.1,30.15,West,270,4.0,8.0,84,0.00,,,0.00,meteohub,2013-04-09 00:19:00,
2013-04-08 19:24:00,42.6,37.8,30.16,West,270,9.0,9.0,83,0.00,,,0.00,meteohub,2013-04-09 00:24:00,
2013-04-08 19:29:00,42.4,37.6,30.16,NW,315,7.0,9.0,83,0.00,,,0.00,meteohub,2013-04-09 00:29:00,
2013-04-08 19:34:00,42.3,37.4,30.16,NW,315,5.0,9.0,83,0.00,,,0.00,meteohub,2013-04-09 00:34:00,
2013-04-08 19:39:00,41.9,37.0,30.17,NW,315,8.0,9.0,83,0.00,,,0.00,meteohub,2013-04-09 00:39:00,
2013-04-08 19:45:00,41.9,37.0,30.17,NW,315,8.0,8.0,83,0.00,,,0.00,meteohub,2013-04-09 00:45:00,
2013-04-08 19:50:00,41.7,36.9,30.17,NW,315,4.0,8.0,83,0.00,,,0.00,meteohub,2013-04-09 00:50:00,
2013-04-08 19:55:00,41.5,36.7,30.18,West,270,7.0,8.0,83,0.00,,,0.00,meteohub,2013-04-09 00:55:00,
2013-04-08 20:00:00,41.4,36.5,30.18,SW,225,7.0,9.0,83,0.00,,,0.00,meteohub,2013-04-09 01:00:00,
2013-04-08 20:07:00,41.2,36.5,30.18,NW,315,9.0,9.0,83,0.00,,,0.00,meteohub,2013-04-09 01:07:00,
2013-04-08 20:12:00,41.0,36.5,30.19,NW,315,4.0,11.0,84,0.00,,,0.00,meteohub,2013-04-09 01:12:00,
2013-04-08 20:17:00,40.8,36.7,30.19,West,270,5.0,11.0,85,0.00,,,0.00,meteohub,2013-04-09 01:17:00,
2013-04-08 20:22:00,40.6,36.5,30.19,West,270,4.0,11.0,85,0.00,,,0.00,meteohub,2013-04-09 01:22:00,
2013-04-08 20:28:00,40.5,36.7,30.19,West,270,6.0,8.0,86,0.00,,,0.00,meteohub,2013-04-09 01:28:00,
2013-04-08 20:33:00,40.5,36.9,30.19,West,270,7.0,9.0,87,0.00,,,0.00,meteohub,2013-04-09 01:33:00,
2013-04-08 20:38:00,40.5,36.9,30.19,West,270,5.0,11.0,87,0.00,,,0.00,meteohub,2013-04-09 01:38:00,
2013-04-08 20:43:00,40.5,36.9,30.19,West,270,5.0,11.0,87,0.00,,,0.00,meteohub,2013-04-09 01:43:00,
2013-04-08 20:48:00,40.5,37.2,30.19,West,270,5.0,11.0,88,0.00,,,0.00,meteohub,2013-04-09 01:48:00,
2013-04-08 20:54:00,40.5,37.2,30.19,West,270,11.0,11.0,88,0.00,,,0.00,meteohub,2013-04-09 01:54:00,
2013-04-08 20:59:00,40.5,36.9,30.19,SW,225,12.0,12.0,87,0.00,,,0.00,meteohub,2013-04-09 01:59:00,
2013-04-08 21:04:00,40.5,36.9,30.19,SW,225,12.0,15.0,87,0.00,,,0.00,meteohub,2013-04-09 02:04:00,
2013-04-08 21:10:00,40.5,36.7,30.19,West,270,6.0,15.0,86,0.00,,,0.00,meteohub,2013-04-09 02:10:00,
2013-04-08 21:15:00,40.3,36.5,30.19,West,270,7.0,12.0,86,0.00,,,0.00,meteohub,2013-04-09 02:15:00,
2013-04-08 21:21:00,40.3,36.1,30.19,West,270,5.0,12.0,85,0.00,,,0.00,meteohub,2013-04-09 02:21:00,
2013-04-08 21:26:00,40.3,36.1,30.19,North,0,8.0,10.0,85,0.00,,,0.00,meteohub,2013-04-09 02:26:00,
2013-04-08 21:32:00,40.1,36.0,30.19,West,270,4.0,10.0,85,0.00,,,0.00,meteohub,2013-04-09 02:32:00,
2013-04-08 21:37:00,40.1,36.0,30.19,NW,315,5.0,10.0,85,0.00,,,0.00,meteohub,2013-04-09 02:37:00,
2013-04-08 21:42:00,40.1,36.0,30.20,West,270,9.0,10.0,85,0.00,,,0.00,meteohub,2013-04-09 02:42:00,
2013-04-08 21:47:00,40.1,36.0,30.20,NW,315,5.0,10.0,85,0.00,,,0.00,meteohub,2013-04-09 02:47:00,
2013-04-08 21:52:00,40.1,36.0,30.20,West,270,4.0,10.0,85,0.00,,,0.00,meteohub,2013-04-09 02:52:00,
2013-04-08 21:57:00,40.1,36.0,30.21,NW,315,3.0,10.0,85,0.00,,,0.00,meteohub,2013-04-09 02:57:00,
2013-04-08 22:03:00,40.1,36.0,30.21,West,270,2.0,8.0,85,0.00,,,0.00,meteohub,2013-04-09 03:03:00,
2013-04-08 22:08:00,40.1,36.0,30.21,West,270,5.0,7.0,85,0.00,,,0.00,meteohub,2013-04-09 03:08:00,
2013-04-08 22:13:00,40.3,35.8,30.21,North,0,4.0,9.0,84,0.00,,,0.00,meteohub,2013-04-09 03:13:00,
2013-04-08 22:18:00,40.5,36.0,30.21,NW,315,4.0,9.0,84,0.00,,,0.00,meteohub,2013-04-09 03:18:00,
2013-04-08 22:23:00,40.5,35.8,30.22,NW,315,5.0,9.0,83,0.00,,,0.00,meteohub,2013-04-09 03:23:00,
2013-04-08 22:29:00,40.6,36.0,30.22,NW,315,5.0,8.0,83,0.00,,,0.00,meteohub,2013-04-09 03:29:00,
2013-04-08 22:34:00,40.6,35.6,30.22,West,270,5.0,8.0,82,0.00,,,0.00,meteohub,2013-04-09 03:34:00,
2013-04-08 22:39:00,40.6,35.6,30.23,NW,315,4.0,9.0,82,0.00,,,0.00,meteohub,2013-04-09 03:39:00,
2013-04-08 22:44:00,40.6,35.6,30.23,NW,315,3.0,9.0,82,0.00,,,0.00,meteohub,2013-04-09 03:44:00,
2013-04-08 22:50:00,40.6,35.2,30.23,NW,315,4.0,9.0,81,0.00,,,0.00,meteohub,2013-04-09 03:50:00,
2013-04-08 22:55:00,40.6,35.2,30.24,West,270,2.0,7.0,81,0.00,,,0.00,meteohub,2013-04-09 03:55:00,
2013-04-08 23:00:00,40.6,35.2,30.24,NW,315,3.0,7.0,81,0.00,,,0.00,meteohub,2013-04-09 04:00:00,
2013-04-08 23:01:00,40.6,35.2,30.24,NW,315,3.0,7.0,81,0.00,,,0.00,meteohub,2013-04-09 04:01:00,
2013-04-08 23:02:00,40.6,35.2,30.24,NW,315,3.0,7.0,81,0.00,,,0.00,meteohub,2013-04-09 04:02:00,
2013-04-08 23:07:00,40.5,35.1,30.24,NW,315,4.0,5.0,81,0.00,,,0.00,meteohub,2013-04-09 04:07:00,
2013-04-08 23:08:00,40.5,35.1,30.24,NW,315,4.0,5.0,81,0.00,,,0.00,meteohub,2013-04-09 04:08:00,
2013-04-08 23:14:00,40.5,35.1,30.24,West,270,4.0,5.0,81,0.00,,,0.00,meteohub,2013-04-09 04:14:00,
2013-04-08 23:19:00,40.3,34.9,30.24,West,270,5.0,6.0,81,0.00,,,0.00,meteohub,2013-04-09 04:19:00,
2013-04-08 23:24:00,40.3,34.9,30.24,NW,315,2.0,6.0,81,0.00,,,0.00,meteohub,2013-04-09 04:24:00,
2013-04-08 23:30:00,40.3,34.9,30.24,West,270,4.0,8.0,81,0.00,,,0.00,meteohub,2013-04-09 04:30:00,
2013-04-08 23:35:00,40.1,34.7,30.24,West,270,4.0,8.0,81,0.00,,,0.00,meteohub,2013-04-09 04:35:00,
2013-04-08 23:40:00,39.9,34.5,30.24,West,270,7.0,8.0,81,0.00,,,0.00,meteohub,2013-04-09 04:40:00,
2013-04-08 23:45:00,39.7,34.2,30.24,NW,315,3.0,11.0,80,0.00,,,0.00,meteohub,2013-04-09 04:45:00,
2013-04-08 23:50:00,39.7,34.2,30.24,West,270,5.0,11.0,80,0.00,,,0.00,meteohub,2013-04-09 04:50:00,
2013-04-08 23:56:00,39.7,34.2,30.25,West,270,10.0,10.0,80,0.00,,,0.00,meteohub,2013-04-09 04:56:00,